STARLINK-30761, 58134

Orbit data source: Space-Track

STARLINK-30761, 58134 is a payload satellite owned by SpaceX/Seattle (US) in LEO that was launched on Sun, 22 Oct 2023 UTC via an FALCON 9 launch vehicle from the Air Force Eastern Test Range (AFETR). Payload-class satellites include a variety of spacecraft equipped with specific instruments for various scientific and technological missions. These include communications satellites like Starlink; space stations such as the ISS; scientific satellites like the Hubble; Earth observation satellites from companies like Planet Labs, Umbra, and HawkEye 360; GPS; miniature CubeSats for education and research; and military/defense satellites.

Loading next visibility...
Identifier
58134, 2023-162S
Orbit
LEO
Country
Flag of USUS
Related business
Manufacturer
SpaceX/Seattle
Mission
Operational Commercial Communications
Bus & Motor
STARLINK V2M, Unknown motor
Mass
730 kg wet, ~700 kg dry
Launch date (UTC)
2023-10-22 (2 years ago)
Launch vehicle
FALCON 9
Launch site
Air Force Eastern Test Range (AFETR)
Object type
Payload
Rocket body
Debris
Shape & HBR
Box + 2 Pan, 17.7 m
Radar Cross Section
33.884 m², Large (>1 m²)

Expand to show TLE details & history
Last TLE update: 22 hours ago

TLE from 22 hours ago
0 STARLINK-30761
1 58134U 23162S   25348.69655050  .00001166  00000-0  10137-3 0  9992
2 58134  43.0019 235.0076 0001129 272.7252  87.3461 15.02530672119510
Epoch: 2025-12-14T16:43Z
TLE epoch observation values (Epoch: 2025-12-14T16:43:01.963Z)
Latitude
-0.00001°
Longitude
-99.35635°
Altitude
558.838 km
Speed
7.584 km/s
True Right ascension
15h 40m 01s
True Declination
0° 00' 00"
Sunlit
Object was in daylight at epoch
Visualization orbit readout
Latitude
Unknown
Longitude
Unknown
Altitude
Unknown
Speed
Unknown
Apparent Right ascension
Unknown
Apparent Declination
Unknown
Sunlit
N/A
Visualization observer readout
Local Sidereal Time
13:19:55
Azimuth
Unknown
Elevation
Unknown
Doppler factor
Unknown
Orbital elements
Apogee altitude
561.803 km
Perigee altitude
560.236 km
Semi-major axis
6,939.157 km
Eccentricity
0.00011
Inclination
43.0019°
RAAN
235.0076°
Arg. of periapsis
272.7252°
True anomaly
87.35902°
Mean anomaly
87.3461°
Eccentric anomaly
87.35256°
Mean motion
3.75477 °/min
Orbital period
95.88 mins
BSTAR
0.00010137
Loading maneuver chart data...
Computing Atmospheric mass density...
Loading historical data...
Loading historical data...
Loading historical data...
Loading historical data...
Loading historical data...
Loading historical data...
Loading historical data...

Documentation

Showing up to 5 results
|